Regional Weather Roundup
Issued by NWS State College, PA

Home | Current Version | Previous Version | Graphics & Text | Print | Product List | Glossary On
Versions: 1 2 3 4 5 6 7 8 9 10 11 12 13 14 15 16 17 18 19 20 21 22 23 24 25 26 27 28 29 30 31 32 33 34 35 36 37 38 39 40 41 42 43 44 45 46 47 48 49 50
000
ASUS41 KCTP 282203
RWRCTP

REGIONAL WEATHER ROUNDUP
NATIONAL WEATHER SERVICE STATE COLLEGE PA
600 PM EDT MON JUL 28 2014

Note: "fair" indicates few or no clouds below 12,000 feet with no
significant weather and/or obstructions to visibility.

* = STATION THAT DOES NOT REPORT PRECIPITATION /E.G. RAIN...SNOW...ETC/
    THUNDER OR FOG.

PAZ002>004-007>009-013>016-020>023-029>032-282300-
WESTERN PENNSYLVANIA

CITY           SKY/WX    TMP DP  RH WIND       PRES   REMARKS
ERIE           CLOUDY    67  53  61 NW20G29   29.85R
MEADVILLE      LGT RAIN  59  55  87 NW12G21   29.89R
FRANKLIN*      CLOUDY    61  55  82 W9        29.88R
NEW CASTLE       N/A     61  57  86 NW9G17    29.91R
BEAVER COUNTY  CLOUDY    63  55  77 NW12G18   29.90R
BUTLER*        CLOUDY    63  57  82 NW6       29.89R
PITTSBURGH INT CLOUDY    63  57  81 NW16      29.89R
PITTSBURGH     CLOUDY    62  58  86 NW12G18   29.86R
INDIANA*       CLOUDY    66  59  77 VRB6G15   29.87R
LATROBE        LGT RAIN  64  64 100 W12       29.85R FOG
WASHINGTON CO* CLOUDY    64  55  72 NW12G21   29.91R
$$

PAZ004>006-010>012-017>019-024>028-033>037-041-042-045-046-049>053-282300-
CENTRAL PENNSYLVANIA

CITY           SKY/WX    TMP DP  RH WIND       PRES   REMARKS
BRADFORD       CLOUDY    57  54  89 NW13      29.84R
DUBOIS         CLOUDY    63  58  83 NW9       29.82R
CLEARFIELD     CLOUDY    63  58  83 NW13G21   29.80R
JOHNSTOWN      LGT RAIN  60  56  86 NW15G24   29.83R
ALTOONA        LGT RAIN  65  61  87 NW14G23   29.79R
STATE COLLEGE  LGT RAIN  64  59  82 N9        29.76R
WILLIAMSPORT   CLOUDY    71  58  63 NW10      29.69R
SELINSGROVE    LGT RAIN  67  64  90 VRB3      29.70R
FT INDIANTOWN  LGT RAIN  67  66  97 W7        29.70R
CAPITAL CITY   CLOUDY    70  61  73 N16G28    29.69R
HARRISBURG     CLOUDY    75  59  57 N24G33    29.67R
YORK           CLOUDY    75  58  55 W7G18     29.68R
$$

PAZ038>040-043-044-047-048-054-055-060>062-067>071-282300-
EASTERN PENNSYLVANIA

CITY           SKY/WX    TMP DP  RH WIND       PRES   REMARKS
SCRANTON       CLOUDY    68  61  78 W10       29.66R
MOUNT POCONO   PTSUNNY   63  59  87 W12G21    29.65S
ALLENTOWN      CLOUDY    68  61  78 W7        29.64R
QUAKERTOWN*    PTCLDY    77  59  53 W9G18     29.64R
READING        LGT RAIN  68  61  78 N14G24    29.66R
LANCASTER      CLOUDY    75  59  57 NW10      29.66R
COATESVILLE    PTCLDY    77  59  53 W13G24    29.67R
POTTSTOWN      MOSUNNY   78  58  49 SW13G21   29.64R
BLUE BELL      MOSUNNY   81  59  47 W14G21    29.62R
DOYLESTOWN     MOSUNNY   79  58  48 W9G21     29.61R
WILLOW GROVE   NOT AVBL
NORTH PHILA    MOSUNNY   81  56  42 W14G28    29.62S
PHILADELPHIA   MOSUNNY   82  58  43 W18G26    29.63R
$$


USA.gov is the U.S. government's official web portal to all federal, state and local government web resources and services.